Regional Weather Roundup
Issued by NWS Little Rock, AR

Home | Current Version | Previous Version | Graphics & Text | Print | Product List | Glossary On
Versions: 1 2 3 4 5 6 7 8 9 10 11 12 13 14 15 16 17 18 19 20 21 22 23 24 25 26 27 28 29 30 31 32 33 34 35 36 37 38 39 40 41 42 43 44 45 46 47 48 49 50
359
ASUS44 KLZK 211105
RWRLZK

WEATHER ROUNDUP FOR ARKANSAS
NATIONAL WEATHER SERVICE LITTLE ROCK AR
600 AM CDT SAT OCT 21 2017

NOTE: "FAIR" INDICATES FEW OR NO CLOUDS BELOW 12,000 FEET WITH NO
SIGNIFICANT WEATHER AND/OR OBSTRUCTIONS TO VISIBILITY.

ARZ001-003-010-029-211200-
NORTHWEST ARKANSAS

CITY           SKY/WX    TMP DP  RH WIND       PRES   REMARKS
FAYETTEVILLE   PTCLDY    66  61  84 S15G22    29.95F
FORT SMITH     CLOUDY    67  61  81 E9        29.96S
HARRISON       PTCLDY    64  58  80 SE14      30.01S
BENTONVILLE    CLEAR     65  59  81 S10       29.97R
ROGERS         PTCLDY    64  59  83 SE12      29.96S
SILOAM SPGS    CLOUDY    65  59  81 SE9       29.95R
HIGHFILL       PTCLDY    65  60  84 S14       29.95S
SPRINGDALE     MOCLDY    66  61  82 SE13G20   29.97
$$

ARZ004-005-016-211200-
NORTH CENTRAL ARKANSAS

CITY           SKY/WX    TMP DP  RH WIND       PRES   REMARKS
BATESVILLE     CLOUDY    65  60  84 SE6       30.06R
FLIPPIN        MOCLDY    61  56  83 E5        30.03R
MTN HOME       CLOUDY    62  57  83 SE5       30.03R
$$

ARZ040-041-211200-
WEST CENTRAL ARKANSAS

CITY           SKY/WX    TMP DP  RH WIND       PRES   REMARKS
MENA           CLOUDY    72  70  94 CALM      30.01R
MOUNT IDA      CLOUDY    68  62  81 CALM      30.00R
$$

ARZ009-017-025-026-028-211200-
NORTHEAST ARKANSAS

CITY           SKY/WX    TMP DP  RH WIND       PRES   REMARKS
CORNING        PTSUNNY   63  57  82 S6        30.08R
JONESBORO      MOCLDY    60  57  89 NE5       30.08R
NEWPORT        CLOUDY    63  58  83 S7        30.07R
WALNUT RIDGE   CLOUDY    62  56  80 SE5       30.08R
BLYTHEVILLE    PTCLDY    61  54  77 S6        30.11R
$$

ARZ022-023-033-042-044-211200-
CENTRAL ARKANSAS

CITY           SKY/WX    TMP DP  RH WIND       PRES   REMARKS
LITTLE ROCK    CLOUDY    63  60  90 CALM      30.05R
N LITTLE ROCK    N/A     64  60  85 S3        30.06R
JACKSONVILLE   CLOUDY    61  59  94 CALM      30.04R
SEARCY         CLOUDY    64  62  93 CALM      30.06R
HOT SPRINGS    CLOUDY    69  65  86 VRB5      30.03R
RUSSELLVILLE   CLOUDY    65  59  81 E3        30.02R
CLINTON        CLOUDY    57  57 100 CALM      30.06R FOG
$$

ARZ036-211200-
EAST ARKANSAS

CITY           SKY/WX    TMP DP  RH WIND       PRES   REMARKS
WEST MEMPHIS   PTCLDY    62  56  80 SE8       30.08S
$$

ARZ050-053-066-070-073-211200-
SOUTHWEST ARKANSAS

CITY           SKY/WX    TMP DP  RH WIND       PRES   REMARKS
ARKADELPHIA    CLOUDY    62  61  96 CALM      30.03S
CAMDEN         CLOUDY    66  61  82 SE6       30.02R
TEXARKANA      LGT RAIN  67  65  93 SE9       30.00R
EL DORADO      CLOUDY    66  66 100 SE6       30.02R
DE QUEEN       CLOUDY    64  63  96 E5        29.97S
$$

ARZ056-057-069-211200-
SOUTHEAST ARKANSAS

CITY           SKY/WX    TMP DP  RH WIND       PRES   REMARKS
PINE BLUFF     CLOUDY    66  60  81 SE7       30.04R
STUTTGART      CLOUDY    66  61  84 SE7       30.06R
MONTICELLO     PTCLDY    66  62  87 SE6       30.04S

$$






USA.gov is the U.S. government's official web portal to all federal, state and local government web resources and services.